Time,TemperatureF,DewpointF,PressureIn,WindDirection,WindDirectionDegrees,WindSpeedMPH,WindSpeedGustMPH,Humidity,HourlyPrecipIn,Conditions,Clouds,dailyrainin,SoftwareType,DateUTC
2013-11-18 00:01:00,56.7,51.9,29.83,SSE,158,2.0,5.8,84,0.00,RA,,0.00,WeatherDisplay:10.37,2013-11-18 05:01:00,
2013-11-18 00:06:00,56.7,51.9,29.82,SE,135,4.0,4.0,84,0.00,RA,,0.00,WeatherDisplay:10.37,2013-11-18 05:06:00,
2013-11-18 00:11:00,56.8,52.1,29.82,SSW,202,4.3,4.6,84,0.00,CLR,,0.00,WeatherDisplay:10.37,2013-11-18 05:11:00,
2013-11-18 00:16:00,56.8,52.1,29.81,SSE,158,5.4,5.8,84,0.00,CLR,,0.00,WeatherDisplay:10.37,2013-11-18 05:16:00,
2013-11-18 00:21:00,56.8,52.1,29.81,South,180,3.3,3.5,84,0.00,CLR,,0.00,WeatherDisplay:10.37,2013-11-18 05:21:00,
2013-11-18 00:26:00,57.0,52.2,29.80,SE,135,3.8,3.8,84,0.00,CLR,,0.00,WeatherDisplay:10.37,2013-11-18 05:26:00,
2013-11-18 00:31:00,57.0,52.2,29.80,SSW,202,6.4,6.9,84,0.00,CLR,,0.00,WeatherDisplay:10.37,2013-11-18 05:31:00,
2013-11-18 00:36:00,57.0,52.2,29.80,SSE,158,3.6,3.6,84,0.00,CLR,,0.00,WeatherDisplay:10.37,2013-11-18 05:36:00,
2013-11-18 00:41:00,57.0,52.2,29.80,South,180,3.3,3.5,84,0.00,CLR,,0.00,WeatherDisplay:10.37,2013-11-18 05:41:00,
2013-11-18 00:46:00,56.8,52.1,29.79,South,180,2.2,2.3,84,0.00,CLR,,0.00,WeatherDisplay:10.37,2013-11-18 05:46:00,
2013-11-18 00:51:00,56.8,52.1,29.79,SSW,202,4.0,4.6,84,0.00,CLR,,0.00,WeatherDisplay:10.37,2013-11-18 05:51:00,
2013-11-18 00:56:00,56.8,51.7,29.79,SE,135,3.6,4.6,83,0.00,CLR,,0.00,WeatherDisplay:10.37,2013-11-18 05:56:00,
2013-11-18 01:01:00,56.8,51.7,29.79,SSE,158,5.4,5.8,83,0.00,CLR,,0.00,WeatherDisplay:10.37,2013-11-18 06:01:00,
2013-11-18 01:06:00,56.8,51.7,29.79,SSW,202,5.4,5.8,83,0.00,CLR,,0.00,WeatherDisplay:10.37,2013-11-18 06:06:00,
2013-11-18 01:11:00,56.8,51.7,29.78,SE,135,4.0,5.8,83,0.00,CLR,,0.00,WeatherDisplay:10.37,2013-11-18 06:11:00,
2013-11-18 01:16:00,57.0,51.9,29.78,South,180,2.4,8.1,83,0.00,CLR,,0.00,WeatherDisplay:10.37,2013-11-18 06:16:00,
2013-11-18 01:21:00,57.0,51.9,29.78,SSW,202,6.2,6.2,83,0.00,CLR,,0.00,WeatherDisplay:10.37,2013-11-18 06:21:00,
2013-11-18 01:26:00,57.2,52.1,29.78,South,180,6.0,8.1,83,0.00,CLR,,0.00,WeatherDisplay:10.37,2013-11-18 06:26:00,
2013-11-18 01:31:00,57.2,52.1,29.78,SE,135,9.9,9.9,83,0.00,CLR,,0.00,WeatherDisplay:10.37,2013-11-18 06:31:00,
2013-11-18 01:36:00,57.2,52.1,29.78,SSW,202,2.4,8.1,83,0.00,CLR,,0.00,WeatherDisplay:10.37,2013-11-18 06:36:00,
2013-11-18 01:41:00,57.2,52.1,29.77,SSE,158,4.7,4.7,83,0.00,CLR,,0.00,WeatherDisplay:10.37,2013-11-18 06:41:00,
2013-11-18 01:46:00,57.2,52.1,29.77,SSW,202,4.7,8.1,83,0.00,CLR,,0.00,WeatherDisplay:10.37,2013-11-18 06:46:00,
2013-11-18 01:51:00,57.2,52.1,29.77,SSW,202,1.6,5.8,83,0.00,CLR,,0.00,WeatherDisplay:10.37,2013-11-18 06:51:00,
2013-11-18 01:56:00,57.2,52.1,29.77,SSE,158,1.6,1.6,83,0.00,CLR,,0.00,WeatherDisplay:10.37,2013-11-18 06:56:00,
2013-11-18 02:01:00,57.2,52.1,29.77,SSW,202,3.8,3.8,83,0.00,CLR,,0.00,WeatherDisplay:10.37,2013-11-18 07:01:00,
2013-11-18 02:06:00,57.2,52.1,29.77,SSW,202,2.4,4.6,83,0.00,CLR,,0.00,WeatherDisplay:10.37,2013-11-18 07:06:00,
2013-11-18 02:11:00,57.2,52.1,29.76,SSW,202,4.3,4.6,83,0.00,CLR,,0.00,WeatherDisplay:10.37,2013-11-18 07:11:00,
2013-11-18 02:16:00,57.2,52.1,29.75,SSW,202,6.2,6.2,83,0.00,CLR,,0.00,WeatherDisplay:10.37,2013-11-18 07:16:00,
2013-11-18 02:21:00,57.2,52.1,29.75,SSW,202,5.4,5.8,83,0.00,CLR,,0.00,WeatherDisplay:10.37,2013-11-18 07:21:00,
2013-11-18 02:26:00,57.4,52.3,29.75,SSW,202,2.4,4.6,83,0.00,CLR,,0.00,WeatherDisplay:10.37,2013-11-18 07:26:00,
2013-11-18 02:31:00,57.4,52.3,29.74,SSW,202,4.0,4.7,83,0.00,CLR,,0.00,WeatherDisplay:10.37,2013-11-18 07:31:00,
2013-11-18 02:36:00,57.4,52.3,29.74,SW,225,7.4,12.7,83,0.00,CLR,,0.00,WeatherDisplay:10.37,2013-11-18 07:36:00,
2013-11-18 02:41:00,57.6,52.4,29.74,SSW,202,6.2,6.2,83,0.00,CLR,,0.00,WeatherDisplay:10.37,2013-11-18 07:41:00,
2013-11-18 02:46:00,57.6,52.4,29.73,SE,135,4.0,5.8,83,0.00,CLR,,0.00,WeatherDisplay:10.37,2013-11-18 07:46:00,
2013-11-18 02:51:00,57.6,52.1,29.73,SSW,202,7.6,8.1,82,0.00,CLR,,0.00,WeatherDisplay:10.37,2013-11-18 07:51:00,
2013-11-18 02:56:00,57.6,52.1,29.72,SSE,158,5.6,5.6,82,0.00,CLR,,0.00,WeatherDisplay:10.37,2013-11-18 07:56:00,
2013-11-18 03:01:00,57.6,52.1,29.72,South,180,6.7,6.7,82,0.00,CLR,,0.00,WeatherDisplay:10.37,2013-11-18 08:01:00,
2013-11-18 03:06:00,57.6,52.1,29.72,SSW,202,2.4,2.4,82,0.00,CLR,,0.00,WeatherDisplay:10.37,2013-11-18 08:06:00,
2013-11-18 03:11:00,57.6,52.1,29.73,South,180,3.1,3.5,82,0.00,CLR,,0.00,WeatherDisplay:10.37,2013-11-18 08:11:00,
2013-11-18 03:16:00,57.6,52.1,29.73,SSW,202,5.9,10.4,82,0.00,CLR,,0.00,WeatherDisplay:10.37,2013-11-18 08:16:00,
2013-11-18 03:21:00,57.6,52.1,29.73,SW,225,7.4,7.4,82,0.00,CLR,,0.00,WeatherDisplay:10.37,2013-11-18 08:21:00,
2013-11-18 03:26:00,57.4,51.9,29.72,SW,225,5.4,5.8,82,0.00,CLR,,0.00,WeatherDisplay:10.37,2013-11-18 08:26:00,
2013-11-18 03:31:00,57.2,51.8,29.73,SSE,158,5.2,5.2,82,0.00,CLR,,0.00,WeatherDisplay:10.37,2013-11-18 08:31:00,
2013-11-18 03:36:00,57.2,51.8,29.73,SW,225,3.3,4.6,82,0.00,CLR,,0.00,WeatherDisplay:10.37,2013-11-18 08:36:00,
2013-11-18 03:41:00,57.4,51.9,29.73,South,180,2.0,11.5,82,0.00,CLR,,0.00,WeatherDisplay:10.37,2013-11-18 08:41:00,
2013-11-18 03:46:00,57.4,51.9,29.72,South,180,2.9,2.9,82,0.00,CLR,,0.00,WeatherDisplay:10.37,2013-11-18 08:46:00,
2013-11-18 03:51:00,57.4,51.9,29.71,SSE,158,1.8,9.2,82,0.00,CLR,,0.00,WeatherDisplay:10.37,2013-11-18 08:51:00,
2013-11-18 03:56:00,57.4,51.9,29.71,South,180,2.4,4.6,82,0.00,CLR,,0.00,WeatherDisplay:10.37,2013-11-18 08:56:00,
2013-11-18 04:01:00,57.4,51.9,29.71,SSW,202,4.5,6.9,82,0.00,CLR,,0.00,WeatherDisplay:10.37,2013-11-18 09:01:00,
2013-11-18 04:06:00,57.2,51.8,29.70,SE,135,4.7,4.7,82,0.00,CLR,,0.00,WeatherDisplay:10.37,2013-11-18 09:06:00,
2013-11-18 04:11:00,57.2,51.8,29.70,SW,225,3.8,3.8,82,0.00,CLR,,0.00,WeatherDisplay:10.37,2013-11-18 09:11:00,
2013-11-18 04:16:00,57.2,51.8,29.70,SSW,202,6.7,6.9,82,0.00,CLR,,0.00,WeatherDisplay:10.37,2013-11-18 09:16:00,
2013-11-18 04:21:00,57.2,51.8,29.69,South,180,4.7,4.7,82,0.00,CLR,,0.00,WeatherDisplay:10.37,2013-11-18 09:21:00,
2013-11-18 04:26:00,57.2,51.8,29.69,WSW,248,5.6,6.9,82,0.00,CLR,,0.00,WeatherDisplay:10.37,2013-11-18 09:26:00,
2013-11-18 04:31:00,57.2,51.8,29.69,SSE,158,2.6,5.8,82,0.00,CLR,,0.00,WeatherDisplay:10.37,2013-11-18 09:31:00,
2013-11-18 04:36:00,57.4,51.6,29.68,SSE,158,2.2,5.8,81,0.00,CLR,,0.00,WeatherDisplay:10.37,2013-11-18 09:36:00,
2013-11-18 04:41:00,57.4,51.6,29.68,SSE,158,1.8,4.6,81,0.00,CLR,,0.00,WeatherDisplay:10.37,2013-11-18 09:41:00,
2013-11-18 04:46:00,57.6,51.8,29.67,SSE,158,3.6,4.6,81,0.00,CLR,,0.00,WeatherDisplay:10.37,2013-11-18 09:46:00,
2013-11-18 04:51:00,57.6,51.8,29.67,SE,135,3.6,5.8,81,0.00,CLR,,0.00,WeatherDisplay:10.37,2013-11-18 09:51:00,
2013-11-18 04:56:00,57.6,51.8,29.66,SSE,158,4.7,6.9,81,0.00,CLR,,0.00,WeatherDisplay:10.37,2013-11-18 09:56:00,
2013-11-18 05:01:00,57.7,51.9,29.65,SSE,158,3.8,11.5,81,0.00,CLR,,0.00,WeatherDisplay:10.37,2013-11-18 10:01:00,
2013-11-18 05:06:00,57.9,52.1,29.64,SSE,158,8.1,8.1,81,0.00,CLR,,0.00,WeatherDisplay:10.37,2013-11-18 10:06:00,
2013-11-18 05:11:00,57.9,52.1,29.64,SW,225,5.9,5.9,81,0.00,CLR,,0.00,WeatherDisplay:10.37,2013-11-18 10:11:00,
2013-11-18 05:16:00,57.9,52.1,29.64,South,180,7.6,16.1,81,0.00,CLR,,0.00,WeatherDisplay:10.37,2013-11-18 10:16:00,
2013-11-18 05:21:00,57.9,52.1,29.63,SSE,158,10.5,10.5,81,0.00,CLR,,0.00,WeatherDisplay:10.37,2013-11-18 10:21:00,
2013-11-18 05:26:00,57.9,52.1,29.62,SSW,202,6.2,6.2,81,0.01,RA,,0.01,WeatherDisplay:10.37,2013-11-18 10:26:00,
2013-11-18 05:31:00,57.9,52.1,29.62,SW,225,4.5,4.6,81,0.01,RA,,0.01,WeatherDisplay:10.37,2013-11-18 10:31:00,
2013-11-18 05:36:00,58.3,52.5,29.62,SSW,202,9.4,9.4,81,0.01,,,0.01,WeatherDisplay:10.37,2013-11-18 10:36:00,
2013-11-18 05:41:00,58.5,52.3,29.62,SSE,158,8.5,8.5,80,0.01,CLR,,0.01,WeatherDisplay:10.37,2013-11-18 10:41:00,
2013-11-18 05:46:00,58.5,52.3,29.62,SSW,202,7.1,7.1,80,0.01,CLR,,0.01,WeatherDisplay:10.37,2013-11-18 10:46:00,
2013-11-18 05:51:00,58.6,52.5,29.61,SSE,158,8.1,8.1,80,0.01,CLR,,0.01,WeatherDisplay:10.37,2013-11-18 10:51:00,
2013-11-18 05:56:00,58.6,52.1,29.60,SW,225,8.5,11.5,79,0.01,CLR,,0.01,WeatherDisplay:10.37,2013-11-18 10:56:00,
2013-11-18 06:01:00,58.8,52.3,29.60,SE,135,11.2,11.2,79,0.02,RA,,0.02,WeatherDisplay:10.37,2013-11-18 11:01:00,
2013-11-18 06:06:00,58.8,52.3,29.59,South,180,6.0,10.4,79,0.02,RA,,0.02,WeatherDisplay:10.37,2013-11-18 11:06:00,
2013-11-18 06:11:00,59.0,52.5,29.59,SW,225,9.9,12.7,79,0.02,,,0.02,WeatherDisplay:10.37,2013-11-18 11:11:00,
2013-11-18 06:16:00,59.2,52.7,29.58,ESE,112,12.5,12.5,79,0.02,CLR,,0.02,WeatherDisplay:10.37,2013-11-18 11:16:00,
2013-11-18 06:21:00,59.4,52.8,29.58,South,180,19.0,19.0,79,0.02,CLR,,0.02,WeatherDisplay:10.37,2013-11-18 11:21:00,
2013-11-18 06:26:00,59.4,52.8,29.58,SW,225,7.6,8.1,79,0.03,RA,,0.04,WeatherDisplay:10.37,2013-11-18 11:26:00,
2013-11-18 06:31:00,59.5,53.0,29.58,South,180,9.2,9.2,79,0.05,RA,,0.06,WeatherDisplay:10.37,2013-11-18 11:31:00,
2013-11-18 06:36:00,59.5,53.0,29.57,SSW,202,5.2,5.8,79,0.05,RA,,0.06,WeatherDisplay:10.37,2013-11-18 11:36:00,
2013-11-18 06:41:00,59.5,53.0,29.56,SSW,202,12.5,12.5,79,0.06,RA,,0.08,WeatherDisplay:10.37,2013-11-18 11:41:00,
2013-11-18 06:46:00,59.4,52.8,29.56,SSW,202,5.6,5.8,79,0.08,RA,,0.09,WeatherDisplay:10.37,2013-11-18 11:46:00,
2013-11-18 06:51:00,59.5,53.0,29.57,SSW,202,10.0,10.4,79,0.09,RA,,0.10,WeatherDisplay:10.37,2013-11-18 11:51:00,
2013-11-18 06:56:00,59.7,52.8,29.57,SSW,202,12.8,12.8,78,0.11,RA,,0.12,WeatherDisplay:10.37,2013-11-18 11:56:00,
2013-11-18 07:01:00,59.7,52.8,29.57,WSW,248,9.2,9.2,78,0.10,RA,,0.12,WeatherDisplay:10.37,2013-11-18 12:01:00,
2013-11-18 07:06:00,60.1,53.2,29.58,WSW,248,15.2,15.2,78,0.11,RA,,0.13,WeatherDisplay:10.37,2013-11-18 12:06:00,
2013-11-18 07:11:00,60.1,53.2,29.57,South,180,18.1,18.4,78,0.11,RA,,0.13,WeatherDisplay:10.37,2013-11-18 12:11:00,
2013-11-18 07:16:00,60.1,53.2,29.57,SW,225,14.3,14.3,78,0.12,RA,,0.14,WeatherDisplay:10.37,2013-11-18 12:16:00,
2013-11-18 07:21:00,59.9,53.0,29.57,SE,135,6.9,6.9,78,0.12,RA,,0.14,WeatherDisplay:10.37,2013-11-18 12:21:00,
2013-11-18 07:26:00,59.7,53.2,29.56,South,180,9.7,9.7,79,0.11,RA,,0.15,WeatherDisplay:10.37,2013-11-18 12:26:00,
2013-11-18 07:31:00,59.7,53.2,29.56,SSE,158,10.2,10.4,79,0.09,RA,,0.15,WeatherDisplay:10.37,2013-11-18 12:31:00,
2013-11-18 07:36:00,60.1,53.2,29.56,SW,225,9.4,9.4,78,0.10,RA,,0.16,WeatherDisplay:10.37,2013-11-18 12:36:00,
2013-11-18 07:41:00,60.1,53.2,29.56,South,180,6.9,6.9,78,0.11,RA,,0.18,WeatherDisplay:10.37,2013-11-18 12:41:00,
2013-11-18 07:46:00,60.6,53.7,29.56,South,180,10.5,10.5,78,0.12,RA,,0.21,WeatherDisplay:10.37,2013-11-18 12:46:00,
2013-11-18 07:51:00,60.6,53.7,29.56,SSW,202,10.9,11.5,78,0.15,RA,,0.24,WeatherDisplay:10.37,2013-11-18 12:51:00,
2013-11-18 07:56:00,60.6,53.7,29.56,WSW,248,8.3,8.3,78,0.12,RA,,0.24,WeatherDisplay:10.37,2013-11-18 12:56:00,
2013-11-18 08:01:00,60.1,53.2,29.56,SSW,202,12.3,12.3,78,0.13,RA,,0.26,WeatherDisplay:10.37,2013-11-18 13:01:00,
2013-11-18 08:06:00,60.1,53.5,29.57,SSW,202,7.1,7.1,79,0.15,RA,,0.28,WeatherDisplay:10.37,2013-11-18 13:06:00,
2013-11-18 08:11:00,60.1,53.2,29.57,SW,225,12.8,12.8,78,0.19,RA,,0.31,WeatherDisplay:10.37,2013-11-18 13:11:00,
2013-11-18 08:16:00,60.1,53.2,29.57,SW,225,4.7,4.7,78,0.17,RA,,0.31,WeatherDisplay:10.37,2013-11-18 13:16:00,
2013-11-18 08:21:00,60.6,53.7,29.57,SW,225,10.9,11.5,78,0.17,,,0.31,WeatherDisplay:10.37,2013-11-18 13:21:00,
2013-11-18 08:26:00,61.2,53.9,29.57,WSW,248,8.3,8.3,77,0.17,CLR,,0.31,WeatherDisplay:10.37,2013-11-18 13:26:00,
2013-11-18 08:31:00,61.3,54.1,29.57,SW,225,4.5,4.6,77,0.17,RA,,0.32,WeatherDisplay:10.37,2013-11-18 13:31:00,
2013-11-18 08:36:00,61.2,54.2,29.57,West,270,3.3,3.5,78,0.16,RA,,0.32,WeatherDisplay:10.37,2013-11-18 13:36:00,
2013-11-18 08:41:00,61.0,54.1,29.56,WSW,248,5.4,5.8,78,0.14,CLR,,0.32,WeatherDisplay:10.37,2013-11-18 13:41:00,
2013-11-18 08:46:00,60.8,53.9,29.56,WSW,248,4.0,4.6,78,0.11,CLR,,0.32,WeatherDisplay:10.37,2013-11-18 13:46:00,
2013-11-18 08:51:00,60.8,53.9,29.56,SSW,202,4.9,4.9,78,0.08,CLR,,0.32,WeatherDisplay:10.37,2013-11-18 13:51:00,
2013-11-18 08:56:00,60.8,53.9,29.55,SSW,202,1.2,1.2,78,0.08,CLR,,0.32,WeatherDisplay:10.37,2013-11-18 13:56:00,
2013-11-18 09:01:00,61.0,54.1,29.56,WSW,248,10.9,11.5,78,0.07,CLR,,0.32,WeatherDisplay:10.37,2013-11-18 14:01:00,
2013-11-18 09:06:00,61.2,54.2,29.56,SW,225,3.1,3.1,78,0.04,CLR,,0.32,WeatherDisplay:10.37,2013-11-18 14:06:00,
2013-11-18 09:11:00,61.2,54.2,29.56,SW,225,1.8,4.6,78,0.01,CLR,,0.32,WeatherDisplay:10.37,2013-11-18 14:11:00,
2013-11-18 09:16:00,61.3,54.4,29.56,SSW,202,4.7,4.7,78,0.01,CLR,,0.32,WeatherDisplay:10.37,2013-11-18 14:16:00,
2013-11-18 09:21:00,61.3,54.4,29.56,WSW,248,6.9,6.9,78,0.01,CLR,,0.32,WeatherDisplay:10.37,2013-11-18 14:21:00,
2013-11-18 09:26:00,61.3,54.4,29.55,SSW,202,6.2,6.2,78,0.01,CLR,,0.32,WeatherDisplay:10.37,2013-11-18 14:26:00,
2013-11-18 09:31:00,61.5,54.6,29.55,SW,225,3.6,4.6,78,0.00,CLR,,0.32,WeatherDisplay:10.37,2013-11-18 14:31:00,
2013-11-18 09:36:00,61.5,54.6,29.55,SSW,202,9.7,9.7,78,0.00,CLR,,0.32,WeatherDisplay:10.37,2013-11-18 14:36:00,
2013-11-18 09:41:00,61.7,55.1,29.56,SW,225,6.9,6.9,79,0.00,CLR,,0.32,WeatherDisplay:10.37,2013-11-18 14:41:00,
2013-11-18 09:46:00,61.7,55.1,29.55,WSW,248,6.7,8.1,79,0.00,CLR,,0.32,WeatherDisplay:10.37,2013-11-18 14:46:00,
2013-11-18 09:51:00,61.7,55.1,29.55,SW,225,5.4,5.8,79,0.00,CLR,,0.32,WeatherDisplay:10.37,2013-11-18 14:51:00,
2013-11-18 09:56:00,61.9,55.6,29.55,West,270,2.0,2.3,80,0.00,CLR,,0.32,WeatherDisplay:10.37,2013-11-18 14:56:00,
2013-11-18 10:01:00,61.9,56.7,29.56,WNW,292,5.9,5.9,83,0.00,CLR,,0.32,WeatherDisplay:10.37,2013-11-18 15:01:00,
2013-11-18 10:06:00,61.9,56.7,29.56,South,180,7.4,7.4,83,0.00,CLR,,0.32,WeatherDisplay:10.37,2013-11-18 15:06:00,
2013-11-18 10:11:00,61.7,56.5,29.56,South,180,4.0,4.6,83,0.00,CLR,,0.32,WeatherDisplay:10.37,2013-11-18 15:11:00,
2013-11-18 10:16:00,61.5,56.3,29.55,SW,225,8.5,8.5,83,0.00,CLR,,0.32,WeatherDisplay:10.37,2013-11-18 15:16:00,
2013-11-18 10:21:00,61.5,56.3,29.55,SSW,202,7.8,8.1,83,0.00,CLR,,0.32,WeatherDisplay:10.37,2013-11-18 15:21:00,
2013-11-18 10:26:00,61.9,56.7,29.55,SSW,202,7.1,7.1,83,0.00,CLR,,0.32,WeatherDisplay:10.37,2013-11-18 15:26:00,
2013-11-18 10:31:00,61.9,56.3,29.54,South,180,6.7,8.1,82,0.00,CLR,,0.32,WeatherDisplay:10.37,2013-11-18 15:31:00,
2013-11-18 10:36:00,62.1,56.2,29.55,South,180,8.5,8.5,81,0.00,CLR,,0.32,WeatherDisplay:10.37,2013-11-18 15:36:00,
2013-11-18 10:41:00,61.9,55.6,29.55,SW,225,5.4,5.8,80,0.00,CLR,,0.32,WeatherDisplay:10.37,2013-11-18 15:41:00,
2013-11-18 10:46:00,61.9,55.6,29.54,South,180,4.7,9.2,80,0.00,CLR,,0.32,WeatherDisplay:10.37,2013-11-18 15:46:00,
2013-11-18 10:51:00,61.9,55.3,29.54,SW,225,1.8,2.3,79,0.00,CLR,,0.32,WeatherDisplay:10.37,2013-11-18 15:51:00,
2013-11-18 10:56:00,62.2,56.0,29.54,WNW,292,3.8,5.8,80,0.00,CLR,,0.32,WeatherDisplay:10.37,2013-11-18 15:56:00,
2013-11-18 11:02:00,62.8,55.8,29.54,SW,225,8.5,8.5,78,0.00,CLR,,0.32,WeatherDisplay:10.37,2013-11-18 16:02:00,
2013-11-18 11:07:00,62.6,55.6,29.54,SW,225,8.3,8.3,78,0.00,CLR,,0.32,WeatherDisplay:10.37,2013-11-18 16:07:00,
2013-11-18 11:12:00,62.8,55.5,29.54,SSW,202,6.2,6.9,77,0.00,CLR,,0.32,WeatherDisplay:10.37,2013-11-18 16:12:00,
2013-11-18 11:17:00,62.8,55.5,29.54,South,180,5.6,5.8,77,0.00,CLR,,0.32,WeatherDisplay:10.37,2013-11-18 16:17:00,
2013-11-18 11:22:00,62.8,55.5,29.54,SSE,158,4.5,4.6,77,0.00,CLR,,0.32,WeatherDisplay:10.37,2013-11-18 16:22:00,
2013-11-18 11:27:00,62.8,55.1,29.53,WSW,248,8.7,9.2,76,0.00,CLR,,0.32,WeatherDisplay:10.37,2013-11-18 16:27:00,
2013-11-18 11:32:00,63.0,55.3,29.54,SSW,202,14.3,14.3,76,0.00,CLR,,0.32,WeatherDisplay:10.37,2013-11-18 16:32:00,
2013-11-18 11:37:00,63.1,55.4,29.53,West,270,4.7,4.7,76,0.00,CLR,,0.32,WeatherDisplay:10.37,2013-11-18 16:37:00,
2013-11-18 11:42:00,63.3,55.6,29.53,SSW,202,1.8,6.9,76,0.00,CLR,,0.32,WeatherDisplay:10.37,2013-11-18 16:42:00,
2013-11-18 11:47:00,63.3,55.6,29.53,SW,225,4.3,4.6,76,0.00,CLR,,0.32,WeatherDisplay:10.37,2013-11-18 16:47:00,
2013-11-18 11:52:00,63.7,56.0,29.53,SW,225,4.7,4.7,76,0.00,CLR,,0.32,WeatherDisplay:10.37,2013-11-18 16:52:00,
2013-11-18 11:57:00,63.7,55.2,29.53,SSW,202,11.4,11.5,74,0.00,CLR,,0.32,WeatherDisplay:10.37,2013-11-18 16:57:00,
2013-11-18 12:02:00,63.5,55.1,29.53,SSW,202,9.7,9.7,74,0.00,CLR,,0.32,WeatherDisplay:10.37,2013-11-18 17:02:00,
2013-11-18 12:07:00,63.3,54.5,29.53,South,180,7.6,8.1,73,0.00,CLR,,0.32,WeatherDisplay:10.37,2013-11-18 17:07:00,
2013-11-18 12:12:00,63.5,54.7,29.53,South,180,2.6,10.4,73,0.00,CLR,,0.32,WeatherDisplay:10.37,2013-11-18 17:12:00,
2013-11-18 12:17:00,63.7,54.1,29.53,SW,225,4.7,4.7,71,0.00,CLR,,0.32,WeatherDisplay:10.37,2013-11-18 17:17:00,
2013-11-18 12:22:00,63.7,53.7,29.53,South,180,6.2,8.1,70,0.00,CLR,,0.32,WeatherDisplay:10.37,2013-11-18 17:22:00,
2013-11-18 12:27:00,63.7,54.9,29.53,South,180,3.8,8.1,73,0.00,CLR,,0.32,WeatherDisplay:10.37,2013-11-18 17:27:00,
2013-11-18 12:32:00,63.7,54.5,29.53,SW,225,9.2,9.2,72,0.00,CLR,,0.32,WeatherDisplay:10.37,2013-11-18 17:32:00,
2013-11-18 12:37:00,63.3,53.4,29.53,WSW,248,2.2,2.3,70,0.00,CLR,,0.32,WeatherDisplay:10.37,2013-11-18 17:37:00,
2013-11-18 12:42:00,63.3,53.4,29.53,SSW,202,13.5,13.8,70,0.00,CLR,,0.32,WeatherDisplay:10.37,2013-11-18 17:42:00,
2013-11-18 12:47:00,63.1,53.2,29.54,SSW,202,7.4,9.2,70,0.00,CLR,,0.32,WeatherDisplay:10.37,2013-11-18 17:47:00,
2013-11-18 12:52:00,63.3,53.8,29.54,SSW,202,7.4,7.4,71,0.00,CLR,,0.32,WeatherDisplay:10.37,2013-11-18 17:52:00,
2013-11-18 12:57:00,63.3,53.4,29.54,SSW,202,7.6,8.1,70,0.00,CLR,,0.32,WeatherDisplay:10.37,2013-11-18 17:57:00,
2013-11-18 13:02:00,63.3,53.4,29.54,SW,225,4.0,4.6,70,0.00,CLR,,0.32,WeatherDisplay:10.37,2013-11-18 18:02:00,
2013-11-18 13:07:00,63.7,53.7,29.54,South,180,3.3,5.8,70,0.00,CLR,,0.32,WeatherDisplay:10.37,2013-11-18 18:07:00,
2013-11-18 13:12:00,63.7,53.7,29.54,SSW,202,3.6,3.6,70,0.00,CLR,,0.32,WeatherDisplay:10.37,2013-11-18 18:12:00,
2013-11-18 13:17:00,63.9,54.3,29.54,SW,225,5.6,8.1,71,0.00,CLR,,0.32,WeatherDisplay:10.37,2013-11-18 18:17:00,
2013-11-18 13:22:00,64.0,54.1,29.54,SSW,202,4.5,4.6,70,0.00,CLR,,0.32,WeatherDisplay:10.37,2013-11-18 18:22:00,
2013-11-18 13:27:00,64.0,54.1,29.54,WSW,248,4.3,4.3,70,0.00,CLR,,0.32,WeatherDisplay:10.37,2013-11-18 18:27:00,
2013-11-18 13:32:00,64.0,54.1,29.54,SE,135,5.4,5.8,70,0.00,CLR,,0.32,WeatherDisplay:10.37,2013-11-18 18:32:00,
2013-11-18 13:37:00,64.0,53.7,29.54,SW,225,5.2,5.2,69,0.00,CLR,,0.32,WeatherDisplay:10.37,2013-11-18 18:37:00,
2013-11-18 13:42:00,64.0,53.7,29.54,SSW,202,5.6,5.8,69,0.00,CLR,,0.32,WeatherDisplay:10.37,2013-11-18 18:42:00,
2013-11-18 13:47:00,64.0,52.9,29.54,SSW,202,5.9,6.9,67,0.00,CLR,,0.32,WeatherDisplay:10.37,2013-11-18 18:47:00,
2013-11-18 13:52:00,64.0,53.3,29.54,WSW,248,1.8,5.8,68,0.00,CLR,,0.32,WeatherDisplay:10.37,2013-11-18 18:52:00,
2013-11-18 13:57:00,64.0,53.3,29.54,SSW,202,4.3,4.6,68,0.00,CLR,,0.32,WeatherDisplay:10.37,2013-11-18 18:57:00,
2013-11-18 14:02:00,63.7,53.3,29.54,South,180,4.3,4.3,69,0.00,CLR,,0.32,WeatherDisplay:10.37,2013-11-18 19:02:00,
2013-11-18 14:07:00,63.7,53.3,29.54,SSW,202,6.2,6.2,69,0.00,CLR,,0.32,WeatherDisplay:10.37,2013-11-18 19:07:00,
2013-11-18 14:12:00,63.3,53.0,29.54,SW,225,9.9,9.9,69,0.00,CLR,,0.32,WeatherDisplay:10.37,2013-11-18 19:12:00,
2013-11-18 14:17:00,63.1,52.4,29.53,SSW,202,6.7,6.9,68,0.00,CLR,,0.32,WeatherDisplay:10.37,2013-11-18 19:17:00,
2013-11-18 14:22:00,62.6,52.7,29.54,SSW,202,4.0,5.8,70,0.00,CLR,,0.32,WeatherDisplay:10.37,2013-11-18 19:22:00,
2013-11-18 14:27:00,62.4,52.5,29.54,WSW,248,7.4,7.4,70,0.00,CLR,,0.32,WeatherDisplay:10.37,2013-11-18 19:27:00,
2013-11-18 14:32:00,61.9,52.4,29.54,SW,225,6.9,6.9,71,0.00,CLR,,0.32,WeatherDisplay:10.37,2013-11-18 19:32:00,
2013-11-18 14:37:00,61.7,52.2,29.54,SSW,202,2.4,5.8,71,0.00,CLR,,0.32,WeatherDisplay:10.37,2013-11-18 19:37:00,
2013-11-18 14:42:00,61.3,51.9,29.54,SSW,202,3.8,8.1,71,0.00,CLR,,0.32,WeatherDisplay:10.37,2013-11-18 19:42:00,
2013-11-18 14:47:00,61.2,52.4,29.54,SW,225,1.8,2.3,73,0.00,CLR,,0.32,WeatherDisplay:10.37,2013-11-18 19:47:00,
2013-11-18 14:52:00,61.0,52.3,29.54,South,180,4.0,4.6,73,0.00,CLR,,0.32,WeatherDisplay:10.37,2013-11-18 19:52:00,
2013-11-18 14:57:00,60.8,52.1,29.54,SSW,202,4.7,4.7,73,0.00,CLR,,0.32,WeatherDisplay:10.37,2013-11-18 19:57:00,
2013-11-18 15:02:00,60.4,51.7,29.54,SSW,202,6.2,6.2,73,0.00,CLR,,0.32,WeatherDisplay:10.37,2013-11-18 20:02:00,
2013-11-18 15:07:00,60.1,51.4,29.54,SSW,202,4.0,4.6,73,0.00,CLR,,0.32,WeatherDisplay:10.37,2013-11-18 20:07:00,
2013-11-18 15:12:00,59.7,51.4,29.54,SW,225,4.0,4.6,74,0.00,CLR,,0.32,WeatherDisplay:10.37,2013-11-18 20:12:00,
2013-11-18 15:17:00,59.5,51.2,29.54,South,180,1.4,1.4,74,0.00,CLR,,0.32,WeatherDisplay:10.37,2013-11-18 20:17:00,
2013-11-18 15:22:00,58.8,50.9,29.54,SSW,202,1.6,2.3,75,0.00,CLR,,0.32,WeatherDisplay:10.37,2013-11-18 20:22:00,
2013-11-18 15:27:00,58.6,51.1,29.54,SW,225,2.6,2.6,76,0.00,CLR,,0.32,WeatherDisplay:10.37,2013-11-18 20:27:00,
2013-11-18 15:32:00,58.3,50.7,29.54,SW,225,2.6,3.5,76,0.00,CLR,,0.32,WeatherDisplay:10.37,2013-11-18 20:32:00,
2013-11-18 15:37:00,58.1,50.6,29.54,SW,225,5.2,5.2,76,0.00,CLR,,0.32,WeatherDisplay:10.37,2013-11-18 20:37:00,
2013-11-18 15:42:00,57.9,50.8,29.55,SW,225,1.2,1.2,77,0.00,CLR,,0.32,WeatherDisplay:10.37,2013-11-18 20:42:00,
2013-11-18 15:47:00,57.4,50.6,29.54,SSW,202,1.8,4.6,78,0.00,CLR,,0.32,WeatherDisplay:10.37,2013-11-18 20:47:00,
2013-11-18 15:52:00,57.2,50.4,29.54,SW,225,1.6,1.6,78,0.00,CLR,,0.32,WeatherDisplay:10.37,2013-11-18 20:52:00,
2013-11-18 15:57:00,57.0,50.2,29.55,South,180,2.2,2.3,78,0.00,CLR,,0.32,WeatherDisplay:10.37,2013-11-18 20:57:00,
2013-11-18 16:02:00,56.7,50.2,29.55,SSW,202,5.6,5.8,79,0.00,CLR,,0.32,WeatherDisplay:10.37,2013-11-18 21:02:00,
2013-11-18 16:07:00,56.5,50.0,29.55,SW,225,4.0,4.6,79,0.00,CLR,,0.32,WeatherDisplay:10.37,2013-11-18 21:07:00,
2013-11-18 16:12:00,56.1,49.7,29.55,SW,225,2.6,5.8,79,0.00,CLR,,0.32,WeatherDisplay:10.37,2013-11-18 21:12:00,
2013-11-18 16:17:00,56.1,50.0,29.55,SSW,202,6.2,6.2,80,0.00,CLR,,0.32,WeatherDisplay:10.37,2013-11-18 21:17:00,
2013-11-18 16:22:00,55.8,49.7,29.55,SSW,202,2.9,4.6,80,0.00,CLR,,0.32,WeatherDisplay:10.37,2013-11-18 21:22:00,
2013-11-18 16:27:00,55.6,49.5,29.55,SSW,202,3.6,3.6,80,0.00,CLR,,0.32,WeatherDisplay:10.37,2013-11-18 21:27:00,
2013-11-18 16:32:00,55.4,49.0,29.55,SW,225,1.8,2.3,79,0.00,CLR,,0.32,WeatherDisplay:10.37,2013-11-18 21:32:00,
2013-11-18 16:37:00,55.0,49.0,29.55,SSW,202,3.3,3.5,80,0.00,CLR,,0.32,WeatherDisplay:10.37,2013-11-18 21:37:00,
2013-11-18 16:42:00,54.7,48.6,29.55,SSW,202,2.6,3.5,80,0.00,CLR,,0.32,WeatherDisplay:10.37,2013-11-18 21:42:00,
2013-11-18 16:47:00,54.5,48.5,29.55,SW,225,5.2,5.2,80,0.00,CLR,,0.32,WeatherDisplay:10.37,2013-11-18 21:47:00,
2013-11-18 16:52:00,54.3,48.3,29.55,SW,225,2.4,2.4,80,0.00,CLR,,0.32,WeatherDisplay:10.37,2013-11-18 21:52:00,
2013-11-18 16:57:00,54.0,48.3,29.55,SW,225,0.7,2.3,81,0.00,CLR,,0.32,WeatherDisplay:10.37,2013-11-18 21:57:00,
2013-11-18 17:02:00,53.6,47.9,29.56,SSW,202,0.9,2.3,81,0.00,CLR,,0.32,WeatherDisplay:10.37,2013-11-18 22:02:00,
2013-11-18 17:07:00,53.4,47.7,29.55,SSW,202,0.5,0.5,81,0.00,CLR,,0.32,WeatherDisplay:10.37,2013-11-18 22:07:00,
2013-11-18 17:12:00,53.2,47.6,29.55,SW,225,0.0,1.2,81,0.00,CLR,,0.32,WeatherDisplay:10.37,2013-11-18 22:12:00,
2013-11-18 17:17:00,53.1,47.4,29.56,SSW,202,0.7,1.2,81,0.00,CLR,,0.32,WeatherDisplay:10.37,2013-11-18 22:17:00,
2013-11-18 17:22:00,52.7,47.0,29.56,WSW,248,0.5,0.5,81,0.00,CLR,,0.32,WeatherDisplay:10.37,2013-11-18 22:22:00,
2013-11-18 17:27:00,52.2,46.8,29.56,SSW,202,0.5,0.5,82,0.00,CLR,,0.32,WeatherDisplay:10.37,2013-11-18 22:27:00,
2013-11-18 17:32:00,51.8,46.5,29.56,SSE,158,1.6,1.6,82,0.00,CLR,,0.32,WeatherDisplay:10.37,2013-11-18 22:32:00,
2013-11-18 17:37:00,51.4,46.1,29.56,SW,225,2.4,2.4,82,0.00,CLR,,0.32,WeatherDisplay:10.37,2013-11-18 22:37:00,
2013-11-18 17:42:00,51.3,46.0,29.56,WSW,248,1.4,1.4,82,0.00,CLR,,0.32,WeatherDisplay:10.37,2013-11-18 22:42:00,
2013-11-18 17:47:00,51.1,45.8,29.56,SW,225,0.7,3.5,82,0.00,CLR,,0.32,WeatherDisplay:10.37,2013-11-18 22:47:00,
2013-11-18 17:52:00,50.9,45.9,29.56,SSW,202,1.2,1.2,83,0.00,CLR,,0.32,WeatherDisplay:10.37,2013-11-18 22:52:00,
2013-11-18 17:57:00,50.7,45.7,29.56,SSW,202,1.2,1.2,83,0.00,CLR,,0.32,WeatherDisplay:10.37,2013-11-18 22:57:00,
2013-11-18 18:02:00,50.7,45.7,29.56,South,180,0.0,0.0,83,0.00,CLR,,0.32,WeatherDisplay:10.37,2013-11-18 23:02:00,
2013-11-18 18:07:00,50.7,45.7,29.56,West,270,0.7,1.2,83,0.00,CLR,,0.32,WeatherDisplay:10.37,2013-11-18 23:07:00,
2013-11-18 18:12:00,50.7,46.1,29.56,WSW,248,1.6,1.6,84,0.00,CLR,,0.32,WeatherDisplay:10.37,2013-11-18 23:12:00,
2013-11-18 18:17:00,50.5,45.9,29.56,WSW,248,3.3,3.5,84,0.00,CLR,,0.32,WeatherDisplay:10.37,2013-11-18 23:17:00,
2013-11-18 18:22:00,50.5,45.9,29.56,SSW,202,1.4,1.4,84,0.00,CLR,,0.32,WeatherDisplay:10.37,2013-11-18 23:22:00,
2013-11-18 18:27:00,50.5,45.9,29.56,SW,225,1.4,1.4,84,0.00,CLR,,0.32,WeatherDisplay:10.37,2013-11-18 23:27:00,
2013-11-18 18:32:00,50.7,46.1,29.56,SW,225,0.5,0.5,84,0.00,CLR,,0.32,WeatherDisplay:10.37,2013-11-18 23:32:00,
2013-11-18 18:37:00,50.7,46.1,29.56,WSW,248,2.9,2.9,84,0.00,CLR,,0.32,WeatherDisplay:10.37,2013-11-18 23:37:00,
2013-11-18 18:42:00,50.7,46.1,29.56,SW,225,0.0,1.2,84,0.00,CLR,,0.32,WeatherDisplay:10.37,2013-11-18 23:42:00,
2013-11-18 18:47:00,50.7,46.1,29.56,WSW,248,2.4,2.4,84,0.00,CLR,,0.32,WeatherDisplay:10.37,2013-11-18 23:47:00,
2013-11-18 18:52:00,50.5,45.9,29.56,SW,225,0.5,1.2,84,0.00,CLR,,0.32,WeatherDisplay:10.37,2013-11-18 23:52:00,
2013-11-18 18:57:00,50.5,45.9,29.55,SSW,202,2.6,2.6,84,0.00,CLR,,0.32,WeatherDisplay:10.37,2013-11-18 23:57:00,
2013-11-18 19:02:00,50.4,45.7,29.55,SW,225,4.0,4.6,84,0.00,CLR,,0.32,WeatherDisplay:10.37,2013-11-19 00:02:00,
2013-11-18 19:07:00,50.4,45.7,29.55,SSW,202,0.5,2.3,84,0.00,CLR,,0.32,WeatherDisplay:10.37,2013-11-19 00:07:00,
2013-11-18 19:12:00,50.4,45.7,29.55,SW,225,0.7,0.0,84,0.00,CLR,,0.32,WeatherDisplay:10.37,2013-11-19 00:12:00,
2013-11-18 19:17:00,50.2,45.5,29.55,SW,225,0.9,1.2,84,0.00,CLR,,0.32,WeatherDisplay:10.37,2013-11-19 00:17:00,
2013-11-18 19:22:00,50.2,45.5,29.55,SW,225,0.5,2.3,84,0.00,CLR,,0.32,WeatherDisplay:10.37,2013-11-19 00:22:00,
2013-11-18 19:27:00,50.0,45.4,29.55,WNW,292,0.0,0.0,84,0.00,CLR,,0.32,WeatherDisplay:10.37,2013-11-19 00:27:00,
2013-11-18 19:32:00,50.0,45.4,29.55,SSW,202,0.7,1.2,84,0.00,CLR,,0.32,WeatherDisplay:10.37,2013-11-19 00:32:00,
2013-11-18 19:37:00,49.8,45.2,29.54,SW,225,0.5,1.2,84,0.00,CLR,,0.32,WeatherDisplay:10.37,2013-11-19 00:37:00,
2013-11-18 19:42:00,49.6,45.3,29.54,West,270,0.5,1.2,85,0.00,CLR,,0.32,WeatherDisplay:10.37,2013-11-19 00:42:00,
2013-11-18 19:47:00,49.5,44.8,29.54,SW,225,1.2,1.2,84,0.00,CLR,,0.32,WeatherDisplay:10.37,2013-11-19 00:47:00,
2013-11-18 19:52:00,49.3,44.6,29.55,SW,225,0.0,0.0,84,0.00,CLR,,0.32,WeatherDisplay:10.37,2013-11-19 00:52:00,
2013-11-18 19:57:00,49.3,44.6,29.55,NNE,22,0.0,0.0,84,0.00,CLR,,0.32,WeatherDisplay:10.37,2013-11-19 00:57:00,
2013-11-18 20:02:00,49.3,44.6,29.55,SW,225,0.7,1.2,84,0.00,CLR,,0.32,WeatherDisplay:10.37,2013-11-19 01:02:00,
2013-11-18 20:07:00,49.1,44.5,29.55,SW,225,0.5,0.0,84,0.00,CLR,,0.32,WeatherDisplay:10.37,2013-11-19 01:07:00,
2013-11-18 20:12:00,49.1,44.5,29.55,WSW,248,0.0,1.2,84,0.00,CLR,,0.32,WeatherDisplay:10.37,2013-11-19 01:12:00,
2013-11-18 20:17:00,49.1,44.5,29.55,West,270,0.0,0.0,84,0.00,CLR,,0.32,WeatherDisplay:10.37,2013-11-19 01:17:00,
2013-11-18 20:22:00,48.9,44.3,29.55,SW,225,0.5,0.5,84,0.00,CLR,,0.32,WeatherDisplay:10.37,2013-11-19 01:22:00,
2013-11-18 20:27:00,48.9,44.3,29.56,SSW,202,0.2,0.2,84,0.00,CLR,,0.32,WeatherDisplay:10.37,2013-11-19 01:27:00,
2013-11-18 20:32:00,48.7,44.1,29.56,SSW,202,0.5,0.5,84,0.00,CLR,,0.32,WeatherDisplay:10.37,2013-11-19 01:32:00,
2013-11-18 20:37:00,48.6,43.9,29.56,SW,225,0.0,1.2,84,0.00,CLR,,0.32,WeatherDisplay:10.37,2013-11-19 01:37:00,
2013-11-18 20:42:00,48.6,43.9,29.56,SW,225,0.5,0.0,84,0.00,CLR,,0.32,WeatherDisplay:10.37,2013-11-19 01:42:00,
2013-11-18 20:44:00,48.6,43.9,29.55,SW,225,0.5,0.5,84,0.00,CLR,,0.32,WeatherDisplay:10.37,2013-11-19 01:44:00,
2013-11-18 20:49:00,48.4,43.8,29.56,SSW,202,0.5,0.5,84,0.00,CLR,,0.32,WeatherDisplay:10.37,2013-11-19 01:49:00,
2013-11-18 20:54:00,48.4,43.8,29.56,SW,225,0.0,0.0,84,0.00,CLR,,0.32,WeatherDisplay:10.37,2013-11-19 01:54:00,
2013-11-18 20:59:00,48.2,43.6,29.56,West,270,0.2,1.2,84,0.00,CLR,,0.32,WeatherDisplay:10.37,2013-11-19 01:59:00,
2013-11-18 21:04:00,48.0,43.4,29.56,SW,225,1.2,1.2,84,0.00,CLR,,0.32,WeatherDisplay:10.37,2013-11-19 02:04:00,
2013-11-18 21:09:00,47.8,43.2,29.56,SSW,202,1.2,1.2,84,0.00,CLR,,0.32,WeatherDisplay:10.37,2013-11-19 02:09:00,
2013-11-18 21:14:00,47.8,43.2,29.56,WSW,248,0.0,0.0,84,0.00,CLR,,0.32,WeatherDisplay:10.37,2013-11-19 02:14:00,
2013-11-18 21:19:00,47.7,43.1,29.57,SW,225,1.2,2.3,84,0.00,CLR,,0.32,WeatherDisplay:10.37,2013-11-19 02:19:00,
2013-11-18 21:24:00,47.8,43.2,29.57,SSW,202,0.9,2.3,84,0.00,CLR,,0.32,WeatherDisplay:10.37,2013-11-19 02:24:00,
2013-11-18 21:29:00,47.8,43.2,29.57,SSW,202,2.0,2.3,84,0.00,CLR,,0.32,WeatherDisplay:10.37,2013-11-19 02:29:00,
2013-11-18 21:34:00,47.8,43.2,29.57,SSW,202,0.0,0.0,84,0.00,CLR,,0.32,WeatherDisplay:10.37,2013-11-19 02:34:00,
2013-11-18 21:39:00,47.8,43.2,29.57,SW,225,1.4,3.5,84,0.00,CLR,,0.32,WeatherDisplay:10.37,2013-11-19 02:39:00,
2013-11-18 21:44:00,47.8,43.2,29.57,SW,225,1.2,1.2,84,0.00,CLR,,0.32,WeatherDisplay:10.37,2013-11-19 02:44:00,
2013-11-18 21:49:00,47.8,43.2,29.58,WSW,248,0.5,0.5,84,0.00,CLR,,0.32,WeatherDisplay:10.37,2013-11-19 02:49:00,
2013-11-18 21:54:00,47.8,43.2,29.58,SW,225,0.0,0.0,84,0.00,CLR,,0.32,WeatherDisplay:10.37,2013-11-19 02:54:00,
2013-11-18 21:59:00,47.8,43.2,29.58,SW,225,0.0,0.0,84,0.00,CLR,,0.32,WeatherDisplay:10.37,2013-11-19 02:59:00,
2013-11-18 22:04:00,47.8,43.2,29.58,SW,225,0.2,0.2,84,0.00,CLR,,0.32,WeatherDisplay:10.37,2013-11-19 03:04:00,
2013-11-18 22:09:00,47.8,43.2,29.58,SW,225,0.5,0.5,84,0.00,CLR,,0.32,WeatherDisplay:10.37,2013-11-19 03:09:00,
2013-11-18 22:14:00,47.7,43.1,29.58,West,270,0.0,1.2,84,0.00,CLR,,0.32,WeatherDisplay:10.37,2013-11-19 03:14:00,
2013-11-18 22:19:00,47.7,43.1,29.58,West,270,1.2,1.2,84,0.00,CLR,,0.32,WeatherDisplay:10.37,2013-11-19 03:19:00,
2013-11-18 22:24:00,47.5,42.9,29.58,SW,225,0.5,1.2,84,0.00,CLR,,0.32,WeatherDisplay:10.37,2013-11-19 03:24:00,
2013-11-18 22:29:00,47.5,42.9,29.58,WSW,248,1.8,2.3,84,0.00,CLR,,0.32,WeatherDisplay:10.37,2013-11-19 03:29:00,
2013-11-18 22:34:00,47.3,42.7,29.58,SW,225,0.0,0.0,84,0.00,CLR,,0.32,WeatherDisplay:10.37,2013-11-19 03:34:00,
2013-11-18 22:39:00,47.1,42.2,29.58,SW,225,0.0,0.0,83,0.00,CLR,,0.32,WeatherDisplay:10.37,2013-11-19 03:39:00,
2013-11-18 22:44:00,47.1,42.2,29.58,WSW,248,0.0,0.0,83,0.00,CLR,,0.32,WeatherDisplay:10.37,2013-11-19 03:44:00,
2013-11-18 22:49:00,46.8,41.9,29.58,SW,225,0.0,0.0,83,0.00,CLR,,0.32,WeatherDisplay:10.37,2013-11-19 03:49:00,
2013-11-18 22:54:00,46.8,41.9,29.58,SW,225,0.0,0.0,83,0.00,CLR,,0.32,WeatherDisplay:10.37,2013-11-19 03:54:00,
2013-11-18 22:59:00,46.6,41.7,29.59,SW,225,0.0,0.0,83,0.00,CLR,,0.32,WeatherDisplay:10.37,2013-11-19 03:59:00,
2013-11-18 23:04:00,46.4,41.5,29.58,SW,225,0.0,0.0,83,0.00,CLR,,0.32,WeatherDisplay:10.37,2013-11-19 04:04:00,
2013-11-18 23:07:00,46.2,41.3,29.59,SW,225,0.0,0.0,83,0.00,CLR,,0.32,WeatherDisplay:10.37,2013-11-19 04:07:00,
2013-11-18 23:12:00,46.0,41.2,29.59,SW,225,0.0,0.0,83,0.00,CLR,,0.32,WeatherDisplay:10.37,2013-11-19 04:12:00,
2013-11-18 23:17:00,45.7,40.8,29.59,SW,225,0.0,0.0,83,0.00,CLR,,0.32,WeatherDisplay:10.37,2013-11-19 04:17:00,
2013-11-18 23:22:00,45.7,40.8,29.59,SW,225,0.0,0.0,83,0.00,CLR,,0.32,WeatherDisplay:10.37,2013-11-19 04:22:00,
2013-11-18 23:27:00,45.3,40.5,29.59,SSW,202,0.0,0.0,83,0.00,CLR,,0.32,WeatherDisplay:10.37,2013-11-19 04:27:00,
2013-11-18 23:32:00,45.0,40.1,29.59,SSW,202,0.0,0.0,83,0.00,CLR,,0.32,WeatherDisplay:10.37,2013-11-19 04:32:00,
2013-11-18 23:37:00,45.0,40.4,29.59,SSW,202,0.0,0.0,84,0.00,CLR,,0.32,WeatherDisplay:10.37,2013-11-19 04:37:00,
2013-11-18 23:42:00,44.6,40.1,29.59,SSW,202,0.0,0.0,84,0.00,CLR,,0.32,WeatherDisplay:10.37,2013-11-19 04:42:00,
2013-11-18 23:47:00,44.4,39.9,29.59,SSW,202,0.0,0.0,84,0.00,CLR,,0.32,WeatherDisplay:10.37,2013-11-19 04:47:00,
2013-11-18 23:52:00,44.2,39.7,29.60,West,270,0.2,0.2,84,0.00,CLR,,0.32,WeatherDisplay:10.37,2013-11-19 04:52:00,
2013-11-18 23:57:00,44.1,39.5,29.60,NNE,22,0.5,0.5,84,0.00,CLR,,0.32,WeatherDisplay:10.37,2013-11-19 04:57:00,